contact:dominique.lefevre@mio.osupytheas.fr, maurice.libes@osupytheas.fr, didier.mallarino@osupytheas.fr
Project:EMSO http://www.emso-fr.org/EMSO-France
Depth: 2436.0 m
Title:EMSO Ligure Ouest : Data MII capteur AQUADOPP
Date,Latitude,Longitude,X_East,Y_North,Z_Up,Amplitude_X,Amplitude_Y,Amplitude_Z,Batterie,SoundSpeed,Heading,Pitch,Roll,Pressure,TIS,Speed,Direction
, degrees North, degrees East, m.s-1, m.s-1,m.s-1, 1, 1, 1, Volt, m.s-1, degree, degree, degree, dbar, degree_C, m.s-1, degree
2023-04-20T10:07:03,42.805,6.029,-0.011,-0.001,-0.047,104.0,102.0,101.0,13.4,1505.2,332.5,-0.8,1.8,2471.327,13.3,0.011,264.8
2023-04-20T10:22:03,42.805,6.029,0.006,0.018,0.003,102.0,101.0,101.0,13.4,1505.2,321.9,-0.8,1.8,2471.496,13.28,0.018,18.4
2023-04-20T10:25:03,42.805,6.029,-0.025,0.02,-0.009,101.0,101.0,100.0,13.4,1505.2,335.4,-0.7,1.8,2471.468,13.29,0.032,308.7
2023-04-20T10:28:03,42.805,6.029,-0.029,0.033,-0.038,101.0,100.0,101.0,13.3,1505.2,339.0,-0.8,1.8,2471.454,13.29,0.043,318.7
2023-04-20T10:37:03,42.805,6.029,-0.035,0.036,0.017,102.0,102.0,100.0,13.4,1505.2,334.4,-0.8,1.8,2471.37,13.29,0.05,315.8
2023-04-20T10:40:03,42.805,6.029,-0.018,0.005,-0.023,102.0,101.0,101.0,13.4,1505.2,315.0,-0.8,1.8,2471.338,13.29,0.018,285.5
2023-04-20T10:43:03,42.805,6.029,-0.004,0.016,-0.016,102.0,101.0,101.0,13.3,1505.2,322.7,-0.8,1.8,2471.332,13.29,0.016,346.0
2023-04-20T10:46:03,42.805,6.029,-0.034,0.013,-0.057,104.0,101.0,102.0,13.3,1505.2,316.8,-0.8,1.9,2471.328,13.29,0.036,290.9
2023-04-20T10:49:03,42.805,6.029,-0.014,0.017,-0.018,102.0,103.0,99.0,13.4,1505.2,333.0,-0.7,1.8,2471.333,13.29,0.022,320.5
2023-04-20T10:52:03,42.805,6.029,-0.015,0.005,-0.047,101.0,103.0,100.0,13.3,1505.2,336.8,-0.8,1.8,2471.305,13.29,0.015,288.4
2023-04-20T10:55:03,42.805,6.029,0.0,0.006,-0.002,101.0,101.0,101.0,13.4,1505.2,334.3,-0.8,1.8,2471.252,13.29,0.006,0.0
2023-04-20T10:58:03,42.805,6.029,-0.021,0.002,-0.025,103.0,102.0,100.0,13.4,1505.2,330.9,-0.8,1.8,2471.253,13.29,0.021,275.4
2023-04-20T11:04:03,42.805,6.029,-0.037,0.01,-0.02,103.0,102.0,100.0,13.3,1505.2,338.3,-0.7,1.8,2471.304,13.29,0.038,285.1
2023-04-20T11:07:03,42.805,6.029,-0.003,0.025,-0.013,102.0,102.0,102.0,13.4,1505.2,338.5,-0.8,1.8,2471.299,13.29,0.025,353.2
2023-04-20T11:10:03,42.805,6.029,-0.001,-0.004,-0.014,103.0,101.0,101.0,13.4,1505.2,335.4,-0.8,1.8,2471.251,13.29,0.004,194.0
2023-04-20T11:13:03,42.805,6.029,-0.002,0.021,0.012,103.0,103.0,99.0,13.4,1505.2,327.1,-0.8,1.8,2471.252,13.29,0.021,354.6
2023-04-20T11:16:03,42.805,6.029,-0.014,0.011,-0.042,103.0,102.0,100.0,13.3,1505.2,324.2,-0.8,1.8,2471.24,13.29,0.017,308.2
2023-04-20T11:19:03,42.805,6.029,-0.012,0.011,-0.021,103.0,102.0,100.0,13.4,1505.2,334.9,-0.8,1.8,2471.195,13.29,0.016,312.5
2023-04-20T11:22:03,42.805,6.029,-0.027,0.022,0.001,102.0,101.0,100.0,13.4,1505.2,322.4,-0.7,1.8,2471.203,13.29,0.034,309.2
2023-04-20T11:25:03,42.805,6.029,0.026,0.024,0.03,101.0,102.0,100.0,13.4,1505.2,333.4,-0.8,1.8,2471.246,13.29,0.035,47.3
2023-04-20T11:28:03,42.805,6.029,0.0,0.042,0.012,102.0,101.0,101.0,13.3,1505.2,334.4,-0.8,1.8,2471.24,13.29,0.042,0.0
2023-04-20T11:31:03,42.805,6.029,0.012,-0.002,-0.019,102.0,101.0,100.0,13.4,1505.2,343.3,-0.8,1.8,2471.214,13.29,0.012,99.5
2023-04-20T11:34:03,42.805,6.029,0.003,0.0,-0.01,103.0,101.0,100.0,13.3,1505.2,316.8,-0.8,1.8,2471.252,13.29,0.003,90.0
2023-04-20T11:37:03,42.805,6.029,-0.015,-0.016,-0.056,103.0,101.0,101.0,13.4,1505.2,334.4,-0.7,1.8,2471.204,13.29,0.021,223.1
2023-04-20T11:40:03,42.805,6.029,-0.018,0.035,-0.01,103.0,102.0,101.0,13.4,1505.2,329.6,-0.8,1.8,2471.215,13.29,0.039,332.8
2023-04-20T11:43:03,42.805,6.029,-0.015,0.018,0.011,103.0,102.0,103.0,13.3,1505.2,318.2,-0.8,1.8,2471.235,13.29,0.023,320.2
2023-04-20T11:46:03,42.805,6.029,-0.024,0.023,-0.001,102.0,102.0,101.0,13.4,1505.2,334.4,-0.7,1.8,2471.235,13.29,0.033,313.8
2023-04-20T11:49:03,42.805,6.029,-0.01,0.021,-0.014,102.0,102.0,100.0,13.3,1505.2,333.0,-0.8,1.8,2471.23,13.29,0.023,334.5
2023-04-20T11:52:03,42.805,6.029,0.007,0.024,-0.005,102.0,101.0,100.0,13.3,1505.2,342.5,-0.8,1.8,2471.214,13.29,0.025,16.3
2023-04-20T11:55:03,42.805,6.029,-0.004,0.008,-0.027,102.0,101.0,101.0,13.3,1505.2,319.9,-0.8,1.8,2471.239,13.29,0.008,333.4
2023-04-20T11:58:03,42.805,6.029,-0.003,0.025,-0.011,103.0,102.0,101.0,13.3,1505.2,324.7,-0.8,1.8,2471.219,13.29,0.025,353.2
2023-04-20T12:04:03,42.805,6.029,-0.007,0.012,-0.027,102.0,103.0,102.0,13.3,1505.2,326.5,-0.8,1.8,2471.278,13.29,0.013,329.7
2023-04-20T12:07:03,42.805,6.029,-0.028,0.024,-0.031,102.0,101.0,100.0,13.3,1505.2,328.8,-0.8,1.8,2471.206,13.29,0.036,310.6
2023-04-20T12:10:03,42.805,6.029,-0.006,-0.001,-0.026,102.0,102.0,101.0,13.4,1505.2,333.4,-0.8,1.8,2471.245,13.29,0.006,260.5
2023-04-20T12:13:03,42.805,6.029,-0.018,0.029,-0.015,102.0,102.0,102.0,13.3,1505.2,330.0,-0.8,1.8,2471.208,13.29,0.034,328.2
2023-04-20T12:16:03,42.805,6.029,-0.007,0.018,-0.001,101.0,101.0,101.0,13.4,1505.2,329.6,-0.8,1.8,2471.227,13.29,0.019,338.8
2023-04-20T12:19:03,42.805,6.029,0.003,-0.005,-0.043,102.0,103.0,103.0,13.4,1505.2,329.7,-0.8,1.8,2471.218,13.29,0.005,149.0
2023-04-20T12:22:03,42.805,6.029,-0.012,0.018,-0.028,102.0,101.0,100.0,13.3,1505.2,319.1,-0.7,1.8,2471.22,13.29,0.021,326.3
2023-04-20T12:25:03,42.805,6.029,-0.025,0.025,-0.009,101.0,101.0,101.0,13.4,1505.2,334.4,-0.7,1.8,2471.219,13.29,0.035,315.0
2023-04-20T12:28:03,42.805,6.029,-0.019,0.005,-0.039,101.0,101.0,100.0,13.4,1505.2,337.4,-0.7,1.8,2471.238,13.29,0.019,284.7
2023-04-20T12:31:03,42.805,6.029,-0.02,0.016,-0.001,102.0,101.0,99.0,13.4,1505.2,329.3,-0.8,1.8,2471.232,13.29,0.025,308.7
2023-04-20T12:34:03,42.805,6.029,-0.025,0.021,-0.029,101.0,100.0,101.0,13.4,1505.2,330.1,-0.8,1.8,2471.175,13.29,0.032,310.0
2023-04-20T12:37:03,42.805,6.029,0.007,0.007,-0.01,103.0,101.0,99.0,13.4,1505.2,340.9,-0.8,1.8,2471.197,13.29,0.009,45.0
2023-04-20T12:40:03,42.805,6.029,0.01,-0.003,-0.017,102.0,100.0,100.0,13.3,1505.2,320.8,-0.8,1.8,2471.159,13.29,0.01,106.7
2023-04-20T12:43:03,42.805,6.029,-0.012,0.007,-0.019,101.0,102.0,100.0,13.3,1505.2,329.2,-0.7,1.8,2471.167,13.29,0.013,300.3
2023-04-20T12:46:03,42.805,6.029,-0.005,0.012,-0.023,102.0,102.0,101.0,13.4,1505.2,333.0,-0.8,1.8,2471.181,13.29,0.013,337.4
2023-04-20T12:49:03,42.805,6.029,-0.002,0.0,-0.058,101.0,101.0,101.0,13.4,1505.2,330.9,-0.8,1.8,2471.163,13.29,0.002,270.0
2023-04-20T12:52:03,42.805,6.029,-0.015,0.022,0.005,102.0,102.0,100.0,13.4,1505.2,339.6,-0.7,1.8,2471.174,13.29,0.026,325.7
2023-04-20T12:55:03,42.805,6.029,0.006,0.0,-0.013,101.0,101.0,101.0,13.4,1505.2,337.0,-0.8,1.8,2471.19,13.29,0.006,90.0
2023-04-20T12:58:03,42.805,6.029,-0.007,-0.002,-0.011,102.0,102.0,101.0,13.4,1505.2,326.0,-0.8,1.8,2471.207,13.29,0.007,254.1
2023-04-20T13:04:03,42.805,6.029,-0.026,0.017,-0.016,102.0,103.0,100.0,13.4,1505.2,327.4,-0.8,1.8,2471.219,13.29,0.031,303.2
2023-04-20T13:07:03,42.805,6.029,-0.006,0.004,-0.027,103.0,103.0,100.0,13.4,1505.2,334.2,-0.8,1.8,2471.236,13.29,0.007,303.7
2023-04-20T13:10:03,42.805,6.029,-0.037,0.042,-0.033,102.0,102.0,101.0,13.3,1505.2,337.5,-0.8,1.8,2471.212,13.29,0.055,318.6
2023-04-20T13:13:03,42.805,6.029,-0.003,0.003,0.0,103.0,102.0,102.0,13.3,1505.2,334.8,-0.8,1.8,2471.207,13.29,0.004,315.0
2023-04-20T13:16:03,42.805,6.029,-0.014,0.0,-0.011,101.0,102.0,103.0,13.4,1505.2,329.1,-0.8,1.8,2471.218,13.29,0.014,270.0
2023-04-20T13:19:03,42.805,6.029,-0.022,0.009,-0.026,103.0,101.0,101.0,13.4,1505.2,318.8,-0.8,1.8,2471.207,13.29,0.023,292.2
2023-04-20T13:22:03,42.805,6.029,-0.026,0.027,-0.018,102.0,100.0,102.0,13.4,1505.2,319.7,-0.8,1.8,2471.125,13.29,0.037,316.1
2023-04-20T13:25:03,42.805,6.029,-0.016,0.031,-0.011,102.0,102.0,100.0,13.4,1505.2,322.3,-0.8,1.8,2471.158,13.29,0.034,332.7
2023-04-20T13:28:03,42.805,6.029,-0.014,0.013,-0.012,102.0,102.0,100.0,13.3,1505.2,338.9,-0.8,1.8,2471.159,13.29,0.019,312.9
2023-04-20T13:31:03,42.805,6.029,-0.016,0.008,-0.019,101.0,103.0,101.0,13.3,1505.2,330.9,-0.8,1.9,2471.185,13.29,0.017,296.6
2023-04-20T13:34:03,42.805,6.029,-0.015,0.01,0.019,102.0,103.0,99.0,13.3,1505.2,338.2,-0.7,1.8,2471.19,13.29,0.018,303.7
2023-04-20T13:37:03,42.805,6.029,-0.052,-0.012,-0.047,102.0,100.0,101.0,13.3,1505.2,319.3,-0.7,1.8,2471.167,13.29,0.053,257.0
2023-04-20T13:40:03,42.805,6.029,-0.015,0.02,0.003,103.0,103.0,100.0,13.4,1505.2,322.4,-0.7,1.8,2471.159,13.29,0.025,323.1
2023-04-20T13:43:03,42.805,6.029,-0.023,0.021,-0.022,101.0,102.0,101.0,13.4,1505.2,320.9,-0.8,1.8,2471.155,13.29,0.031,312.4
2023-04-20T13:46:03,42.805,6.029,-0.014,0.015,-0.047,102.0,102.0,100.0,13.3,1505.2,343.3,-0.8,1.8,2471.162,13.29,0.02,317.0
2023-04-20T13:49:02,42.805,6.029,0.0,0.009,-0.034,103.0,101.0,101.0,13.3,1505.2,333.9,-0.7,1.8,2471.152,13.29,0.009,0.0
2023-04-20T13:52:02,42.805,6.029,-0.021,0.021,0.002,104.0,102.0,100.0,13.3,1505.2,331.4,-0.7,1.8,2471.164,13.29,0.029,315.0
2023-04-20T13:55:02,42.805,6.029,-0.028,0.026,0.002,101.0,104.0,101.0,13.4,1505.2,327.4,-0.8,1.8,2471.195,13.29,0.038,312.9
2023-04-20T13:58:02,42.805,6.029,-0.015,-0.004,-0.049,103.0,101.0,101.0,13.4,1505.2,336.1,-0.7,1.8,2471.171,13.29,0.015,255.1
2023-04-20T14:04:02,42.805,6.029,-0.008,0.02,-0.017,102.0,101.0,101.0,13.4,1505.2,335.7,-0.8,1.8,2471.207,13.29,0.021,338.2
2023-04-20T14:07:02,42.805,6.029,-0.001,0.03,0.017,103.0,102.0,101.0,13.4,1505.2,331.4,-0.8,1.8,2471.228,13.29,0.03,358.1
2023-04-20T14:10:03,42.805,6.029,-0.026,0.023,0.008,102.0,101.0,100.0,13.4,1505.2,318.9,-0.7,1.8,2471.155,13.29,0.034,311.5
2023-04-20T14:13:03,42.805,6.029,-0.024,0.014,-0.01,104.0,102.0,100.0,13.4,1505.2,325.5,-0.7,1.8,2471.178,13.29,0.027,300.3
2023-04-20T14:16:03,42.805,6.029,0.002,0.027,0.009,102.0,103.0,100.0,13.4,1505.2,328.5,-0.8,1.8,2471.158,13.29,0.027,4.2
2023-04-20T14:19:03,42.805,6.029,-0.04,0.023,-0.028,102.0,100.0,102.0,13.4,1505.2,326.0,-0.8,1.8,2471.164,13.29,0.046,299.9
2023-04-20T14:22:02,42.805,6.029,-0.003,0.021,-0.003,101.0,101.0,102.0,13.4,1505.2,336.0,-0.8,1.8,2471.176,13.29,0.021,351.9
2023-04-20T14:25:03,42.805,6.029,-0.013,0.029,-0.011,101.0,102.0,101.0,13.4,1505.2,322.5,-0.8,1.8,2471.163,13.29,0.031,335.9
2023-04-20T14:28:03,42.805,6.029,-0.022,0.019,-0.041,102.0,102.0,100.0,13.4,1505.2,336.3,-0.8,1.8,2471.166,13.29,0.029,310.8
2023-04-20T14:31:03,42.805,6.029,-0.013,0.029,-0.02,102.0,102.0,100.0,13.3,1505.2,332.1,-0.8,1.9,2471.165,13.29,0.031,335.9
2023-04-20T14:34:03,42.805,6.029,-0.023,0.024,-0.005,101.0,103.0,101.0,13.3,1505.2,322.7,-0.7,1.8,2471.16,13.29,0.033,316.2
2023-04-20T14:37:02,42.805,6.029,-0.016,0.021,0.009,102.0,103.0,100.0,13.3,1505.2,323.3,-0.7,1.8,2471.158,13.29,0.026,322.7
2023-04-20T14:40:03,42.805,6.029,-0.015,0.001,-0.03,102.0,101.0,100.0,13.3,1505.2,328.1,-0.8,1.8,2471.132,13.29,0.015,273.8
2023-04-20T14:43:03,42.805,6.029,-0.007,0.017,-0.023,102.0,101.0,101.0,13.4,1505.2,319.4,-0.8,1.9,2471.172,13.29,0.018,337.6
2023-04-20T14:46:03,42.805,6.029,-0.02,0.036,0.021,102.0,101.0,99.0,13.4,1505.2,321.7,-0.7,1.8,2471.153,13.29,0.041,330.9
2023-04-20T14:49:03,42.805,6.029,-0.013,0.004,-0.037,102.0,101.0,104.0,13.3,1505.2,330.8,-0.7,1.8,2471.163,13.29,0.013,287.1
2023-04-20T14:52:02,42.805,6.029,-0.001,0.03,0.005,101.0,101.0,100.0,13.4,1505.2,332.4,-0.8,1.8,2471.191,13.29,0.03,358.1
2023-04-20T14:55:03,42.805,6.029,-0.006,0.006,-0.023,102.0,101.0,101.0,13.4,1505.2,323.7,-0.8,1.8,2471.165,13.29,0.008,315.0
2023-04-20T14:58:03,42.805,6.029,-0.002,0.023,-0.007,101.0,102.0,101.0,13.3,1505.2,326.8,-0.8,1.8,2471.164,13.29,0.023,355.0
2023-04-20T15:04:02,42.805,6.029,0.014,0.004,-0.004,102.0,103.0,101.0,13.4,1505.2,329.9,-0.7,1.8,2471.204,13.29,0.014,74.1
2023-04-20T15:07:03,42.805,6.029,-0.003,0.021,0.006,101.0,102.0,100.0,13.3,1505.2,339.0,-0.8,1.8,2471.226,13.29,0.021,351.9
2023-04-20T15:10:03,42.805,6.029,-0.011,0.021,-0.013,101.0,102.0,100.0,13.3,1505.2,340.1,-0.8,1.8,2471.214,13.29,0.023,332.4
2023-04-20T15:13:03,42.805,6.029,0.005,0.014,-0.028,103.0,103.0,101.0,13.4,1505.2,344.0,-0.8,1.8,2471.195,13.29,0.014,19.6
2023-04-20T15:16:03,42.805,6.029,-0.012,0.023,-0.026,102.0,101.0,101.0,13.4,1505.2,316.2,-0.8,1.8,2471.209,13.29,0.025,332.4
2023-04-20T15:19:03,42.805,6.029,-0.013,0.026,0.005,102.0,103.0,101.0,13.4,1505.2,318.9,-0.8,1.8,2471.216,13.29,0.029,333.4
2023-04-20T15:22:03,42.805,6.029,-0.005,0.004,-0.038,102.0,102.0,100.0,13.3,1505.2,335.8,-0.8,1.8,2471.183,13.29,0.006,308.7
2023-04-20T15:25:03,42.805,6.029,-0.013,0.039,-0.004,101.0,101.0,101.0,13.4,1505.2,345.2,-0.8,1.8,2471.181,13.29,0.041,341.6
2023-04-20T15:28:03,42.805,6.029,-0.024,0.005,-0.016,102.0,102.0,101.0,13.4,1505.2,318.0,-0.8,1.8,2471.21,13.29,0.024,281.8
2023-04-20T15:31:03,42.805,6.029,-0.011,0.008,-0.025,103.0,102.0,101.0,13.4,1505.2,332.9,-0.8,1.8,2471.208,13.29,0.013,306.0
2023-04-20T15:34:03,42.805,6.029,-0.029,0.008,-0.024,102.0,103.0,101.0,13.4,1505.2,329.6,-0.8,1.8,2471.207,13.29,0.03,285.4
2023-04-20T15:37:03,42.805,6.029,-0.024,0.002,0.006,102.0,102.0,100.0,13.4,1505.2,320.7,-0.8,1.8,2471.184,13.29,0.024,274.8
2023-04-20T15:40:03,42.805,6.029,-0.013,0.018,0.018,101.0,101.0,101.0,13.4,1505.2,326.0,-0.8,1.8,2471.177,13.29,0.022,324.2
2023-04-20T15:43:03,42.805,6.029,-0.04,0.025,-0.013,102.0,102.0,101.0,13.4,1505.2,341.5,-0.8,1.8,2471.218,13.29,0.047,302.0
2023-04-20T15:46:03,42.805,6.029,-0.013,0.03,-0.013,104.0,103.0,101.0,13.4,1505.2,333.8,-0.7,1.8,2471.181,13.29,0.032,336.6
2023-04-20T15:49:03,42.805,6.029,0.001,0.006,0.0,103.0,101.0,101.0,13.4,1505.2,330.1,-0.8,1.8,2471.186,13.29,0.006,9.5
2023-04-20T15:52:03,42.805,6.029,-0.013,0.024,-0.018,102.0,100.0,101.0,13.3,1505.2,325.5,-0.8,1.8,2471.222,13.29,0.027,331.6
2023-04-20T15:55:03,42.805,6.029,-0.03,0.017,-0.014,104.0,102.0,102.0,13.3,1505.2,327.3,-0.8,1.8,2471.234,13.29,0.034,299.5
2023-04-20T15:58:03,42.805,6.029,-0.009,0.004,-0.025,101.0,102.0,100.0,13.4,1505.2,335.2,-0.8,1.8,2471.24,13.29,0.009,294.0
2023-04-20T16:04:03,42.805,6.029,-0.048,0.034,-0.041,101.0,101.0,101.0,13.4,1505.2,330.3,-0.8,1.8,2471.273,13.29,0.058,305.3
2023-04-20T16:07:03,42.805,6.029,-0.012,0.025,0.013,102.0,102.0,101.0,13.3,1505.2,334.3,-0.7,1.8,2471.255,13.29,0.027,334.4
2023-04-20T16:10:03,42.805,6.029,-0.01,0.038,0.008,103.0,101.0,102.0,13.3,1505.2,335.4,-0.8,1.8,2471.272,13.29,0.039,345.3
2023-04-20T16:13:03,42.805,6.029,-0.013,0.008,-0.045,101.0,102.0,101.0,13.4,1505.2,335.0,-0.8,1.8,2471.247,13.29,0.015,301.6
2023-04-20T16:16:03,42.805,6.029,-0.025,0.015,-0.01,102.0,102.0,101.0,13.4,1505.2,332.9,-0.8,1.8,2471.241,13.29,0.029,301.0
2023-04-20T16:19:03,42.805,6.029,-0.035,0.018,-0.022,102.0,101.0,101.0,13.4,1505.2,322.9,-0.8,1.8,2471.251,13.29,0.039,297.2
2023-04-20T16:22:03,42.805,6.029,-0.005,0.034,0.011,104.0,100.0,101.0,13.4,1505.2,342.5,-0.8,1.8,2471.248,13.29,0.034,351.6
2023-04-20T16:25:03,42.805,6.029,-0.016,0.02,-0.022,102.0,103.0,100.0,13.4,1505.2,320.8,-0.8,1.8,2471.286,13.29,0.025,321.3
2023-04-20T16:28:03,42.805,6.029,-0.01,0.038,0.008,102.0,101.0,101.0,13.4,1505.2,331.4,-0.7,1.8,2471.283,13.29,0.039,345.3
2023-04-20T16:31:03,42.805,6.029,-0.041,0.033,-0.013,101.0,101.0,102.0,13.3,1505.2,337.6,-0.8,1.8,2471.255,13.29,0.052,308.8
2023-04-20T16:34:03,42.805,6.029,-0.021,0.034,0.014,103.0,101.0,102.0,13.3,1505.2,334.9,-0.7,1.8,2471.27,13.29,0.039,328.3
2023-04-20T16:37:03,42.805,6.029,-0.009,0.009,-0.036,102.0,101.0,102.0,13.3,1505.2,337.6,-0.8,1.9,2471.275,13.29,0.012,315.0
2023-04-20T16:40:03,42.805,6.029,-0.02,0.011,-0.02,102.0,102.0,101.0,13.4,1505.2,316.3,-0.8,1.8,2471.273,13.29,0.022,298.8
2023-04-20T16:43:03,42.805,6.029,-0.007,0.005,-0.046,101.0,102.0,101.0,13.3,1505.2,316.3,-0.8,1.8,2471.295,13.29,0.008,305.5
2023-04-20T16:46:03,42.805,6.029,-0.028,0.035,0.004,101.0,101.0,101.0,13.3,1505.2,332.9,-0.8,1.9,2471.274,13.29,0.044,321.3
2023-04-20T16:49:03,42.805,6.029,-0.007,0.01,-0.043,101.0,101.0,101.0,13.4,1505.2,327.9,-0.7,1.8,2471.297,13.29,0.012,325.0
2023-04-20T16:52:03,42.805,6.029,-0.035,0.012,-0.011,102.0,102.0,101.0,13.3,1505.2,326.3,-0.8,1.8,2471.296,13.29,0.037,288.9
2023-04-20T16:55:03,42.805,6.029,-0.029,0.016,-0.028,101.0,101.0,101.0,13.3,1505.2,333.4,-0.7,1.8,2471.271,13.29,0.033,298.9
2023-04-20T16:58:03,42.805,6.029,-0.014,0.017,-0.017,102.0,101.0,101.0,13.4,1505.2,328.5,-0.7,1.9,2471.303,13.29,0.022,320.5
2023-04-20T17:04:03,42.805,6.029,-0.009,0.001,-0.032,103.0,102.0,101.0,13.4,1505.2,333.9,-0.8,1.8,2471.334,13.29,0.009,276.3
2023-04-20T17:07:03,42.805,6.029,-0.016,0.007,0.025,102.0,102.0,101.0,13.4,1505.2,323.9,-0.7,1.8,2471.367,13.29,0.017,293.6
2023-04-20T17:10:03,42.805,6.029,-0.021,-0.007,-0.029,101.0,102.0,101.0,13.3,1505.2,338.6,-0.8,1.8,2471.347,13.29,0.022,251.6
2023-04-20T17:13:03,42.805,6.029,-0.033,0.025,0.0,101.0,104.0,100.0,13.4,1505.2,315.6,-0.8,1.8,2471.33,13.29,0.041,307.1
2023-04-20T17:16:03,42.805,6.029,-0.003,0.01,-0.012,102.0,101.0,101.0,13.4,1505.2,328.6,-0.7,1.8,2471.308,13.29,0.01,343.3
2023-04-20T17:19:03,42.805,6.029,-0.023,0.011,-0.015,102.0,102.0,101.0,13.3,1505.2,334.7,-0.8,1.8,2471.357,13.29,0.025,295.6
2023-04-20T17:22:03,42.805,6.029,-0.002,0.0,-0.024,103.0,102.0,102.0,13.3,1505.2,325.0,-0.8,1.8,2471.338,13.29,0.002,270.0
2023-04-20T17:25:03,42.805,6.029,-0.01,0.016,-0.002,103.0,101.0,100.0,13.3,1505.2,322.6,-0.8,1.8,2471.305,13.29,0.018,328.0
2023-04-20T17:28:03,42.805,6.029,-0.03,0.024,-0.029,103.0,101.0,102.0,13.3,1505.2,335.9,-0.8,1.8,2471.336,13.29,0.038,308.7
2023-04-20T17:31:03,42.805,6.029,-0.023,0.014,-0.016,101.0,101.0,101.0,13.4,1505.2,316.8,-0.8,1.8,2471.332,13.29,0.026,301.3
2023-04-20T17:34:03,42.805,6.029,-0.03,0.049,0.027,100.0,101.0,100.0,13.4,1505.2,331.4,-0.8,1.8,2471.333,13.29,0.057,328.5
2023-04-20T17:37:03,42.805,6.029,-0.019,0.023,-0.007,102.0,101.0,101.0,13.4,1505.2,332.1,-0.8,1.8,2471.346,13.29,0.029,320.4
2023-04-20T17:40:03,42.805,6.029,-0.022,0.017,-0.03,103.0,101.0,101.0,13.4,1505.2,339.3,-0.8,1.8,2471.345,13.29,0.027,307.7
2023-04-20T17:43:03,42.805,6.029,0.0,0.006,0.011,103.0,101.0,100.0,13.4,1505.2,318.6,-0.8,1.8,2471.32,13.29,0.006,0.0
2023-04-20T17:46:03,42.805,6.029,-0.017,0.002,-0.021,102.0,102.0,101.0,13.4,1505.2,322.5,-0.8,1.8,2471.348,13.29,0.017,276.7
2023-04-20T17:49:03,42.805,6.029,-0.02,0.006,-0.033,102.0,101.0,100.0,13.4,1505.2,317.9,-0.7,1.8,2471.309,13.29,0.02,286.7
2023-04-20T17:52:03,42.805,6.029,-0.013,0.022,0.0,102.0,102.0,103.0,13.3,1505.2,323.8,-0.7,1.8,2471.333,13.29,0.025,329.4
2023-04-20T17:55:03,42.805,6.029,-0.037,0.027,-0.014,102.0,102.0,101.0,13.4,1505.2,327.9,-0.8,1.8,2471.341,13.29,0.045,306.1
2023-04-20T17:58:03,42.805,6.029,0.001,0.012,-0.011,102.0,101.0,100.0,13.4,1505.2,325.5,-0.8,1.8,2471.379,13.29,0.012,4.8
2023-04-20T18:04:03,42.805,6.029,-0.019,0.028,-0.014,101.0,101.0,100.0,13.3,1505.2,326.6,-0.8,1.8,2471.414,13.29,0.033,325.8
2023-04-20T18:07:03,42.805,6.029,-0.017,0.001,-0.014,102.0,101.0,100.0,13.4,1505.2,336.6,-0.7,1.8,2471.4,13.29,0.017,273.4
2023-04-20T18:10:03,42.805,6.029,-0.026,0.026,-0.016,101.0,101.0,100.0,13.3,1505.2,332.9,-0.8,1.8,2471.387,13.29,0.036,315.0
2023-04-20T18:13:03,42.805,6.029,-0.004,0.037,-0.017,101.0,103.0,101.0,13.4,1505.2,325.5,-0.8,1.8,2471.404,13.29,0.037,353.8
2023-04-20T18:16:03,42.805,6.029,-0.02,0.03,-0.017,102.0,102.0,101.0,13.4,1505.2,331.9,-0.8,1.8,2471.388,13.29,0.036,326.3
2023-04-20T18:19:03,42.805,6.029,-0.039,0.014,-0.039,103.0,101.0,101.0,13.4,1505.2,318.3,-0.7,1.8,2471.399,13.29,0.041,289.7
2023-04-20T18:22:03,42.805,6.029,-0.001,0.021,-0.019,101.0,101.0,101.0,13.4,1505.2,325.5,-0.8,1.8,2471.352,13.29,0.021,357.3
2023-04-20T18:25:03,42.805,6.029,-0.047,0.063,0.023,102.0,101.0,100.0,13.3,1505.2,340.5,-0.8,1.8,2471.388,13.29,0.078,323.3
2023-04-20T18:28:03,42.805,6.029,-0.024,0.017,-0.023,103.0,101.0,100.0,13.4,1505.2,344.6,-0.7,1.8,2471.39,13.29,0.029,305.3
2023-04-20T18:31:03,42.805,6.029,-0.034,0.009,-0.012,102.0,101.0,100.0,13.4,1505.2,319.1,-0.8,1.8,2471.357,13.29,0.035,284.8
2023-04-20T18:34:03,42.805,6.029,-0.03,0.015,-0.031,101.0,101.0,102.0,13.4,1505.2,326.3,-0.7,1.8,2471.393,13.29,0.033,296.6
2023-04-20T18:37:03,42.805,6.029,-0.01,0.02,0.025,102.0,102.0,100.0,13.4,1505.2,326.8,-0.8,1.8,2471.397,13.29,0.022,333.4
2023-04-20T18:40:03,42.805,6.029,-0.017,0.037,0.007,102.0,101.0,102.0,13.4,1505.2,331.3,-0.7,1.8,2471.355,13.29,0.04,335.3
2023-04-20T18:43:03,42.805,6.029,-0.029,0.016,0.005,102.0,102.0,101.0,13.4,1505.2,322.9,-0.8,1.8,2471.354,13.29,0.033,298.9
2023-04-20T18:46:03,42.805,6.029,-0.009,0.015,-0.056,103.0,105.0,101.0,13.3,1505.2,333.8,-0.8,1.8,2471.396,13.29,0.017,329.0
2023-04-20T18:49:03,42.805,6.029,-0.036,0.032,-0.005,102.0,100.0,103.0,13.3,1505.2,322.3,-0.7,1.8,2471.377,13.29,0.048,311.6
2023-04-20T18:52:03,42.805,6.029,-0.011,0.016,-0.005,104.0,102.0,101.0,13.4,1505.2,328.7,-0.8,1.8,2471.425,13.29,0.019,325.5
2023-04-20T18:55:03,42.805,6.029,-0.035,0.017,-0.021,103.0,101.0,102.0,13.3,1505.2,329.0,-0.7,1.8,2471.378,13.29,0.038,295.9
2023-04-20T18:58:03,42.805,6.029,-0.023,0.031,-0.013,101.0,103.0,101.0,13.3,1505.2,343.9,-0.7,1.8,2471.364,13.29,0.038,323.4
2023-04-20T19:04:03,42.805,6.029,-0.021,0.026,0.0,102.0,101.0,102.0,13.4,1505.2,322.5,-0.7,1.8,2471.442,13.29,0.033,321.1
2023-04-20T19:07:03,42.805,6.029,-0.022,0.022,-0.006,102.0,101.0,101.0,13.3,1505.2,327.3,-0.8,1.8,2471.409,13.29,0.031,315.0
2023-04-20T19:10:03,42.805,6.029,-0.039,0.036,-0.021,102.0,101.0,101.0,13.4,1505.2,320.3,-0.8,1.8,2471.387,13.29,0.053,312.7
2023-04-20T19:13:03,42.805,6.029,-0.009,0.031,0.004,102.0,102.0,100.0,13.3,1505.2,340.4,-0.8,1.8,2471.406,13.29,0.032,343.8
2023-04-20T19:16:03,42.805,6.029,0.015,-0.008,-0.025,102.0,103.0,101.0,13.4,1505.2,330.9,-0.7,1.8,2471.394,13.29,0.017,118.1
2023-04-20T19:19:03,42.805,6.029,-0.024,0.024,-0.024,103.0,101.0,101.0,13.4,1505.2,326.8,-0.8,1.8,2471.373,13.29,0.033,315.0
2023-04-20T19:22:03,42.805,6.029,-0.028,0.004,-0.048,102.0,103.0,101.0,13.4,1505.2,344.2,-0.7,1.8,2471.401,13.29,0.028,278.1
2023-04-20T19:25:03,42.805,6.029,-0.009,0.013,-0.018,101.0,103.0,100.0,13.4,1505.2,320.5,-0.8,1.8,2471.4,13.29,0.015,325.3
2023-04-20T19:28:03,42.805,6.029,0.0,0.016,-0.028,103.0,102.0,101.0,13.4,1505.2,333.9,-0.7,1.8,2471.372,13.29,0.016,0.0
2023-04-20T19:31:03,42.805,6.029,-0.026,0.009,-0.033,102.0,102.0,100.0,13.3,1505.2,323.6,-0.8,1.8,2471.448,13.29,0.027,289.1
2023-04-20T19:34:03,42.805,6.029,-0.025,0.02,-0.01,103.0,101.0,102.0,13.4,1505.2,342.3,-0.8,1.8,2471.37,13.29,0.032,308.7
2023-04-20T19:37:03,42.805,6.029,-0.025,0.021,0.007,102.0,102.0,100.0,13.4,1505.2,319.2,-0.8,1.8,2471.374,13.29,0.032,310.0
2023-04-20T19:40:03,42.805,6.029,-0.03,0.006,-0.045,103.0,102.0,101.0,13.3,1505.2,337.8,-0.8,1.8,2471.412,13.29,0.03,281.3
2023-04-20T19:43:03,42.805,6.029,-0.009,0.022,-0.01,102.0,102.0,101.0,13.4,1505.2,337.2,-0.8,1.8,2471.403,13.29,0.023,337.8
2023-04-20T19:46:03,42.805,6.029,-0.012,0.017,-0.005,102.0,101.0,101.0,13.4,1505.2,340.1,-0.7,1.8,2471.381,13.29,0.02,324.8
2023-04-20T19:49:03,42.805,6.029,0.011,0.025,0.012,103.0,102.0,101.0,13.4,1505.2,336.5,-0.8,1.8,2471.387,13.29,0.027,23.7
2023-04-20T19:52:03,42.805,6.029,-0.03,0.003,-0.045,103.0,101.0,101.0,13.4,1505.2,331.8,-0.8,1.8,2471.388,13.29,0.03,275.7
2023-04-20T19:55:03,42.805,6.029,-0.015,0.005,-0.057,102.0,102.0,101.0,13.3,1505.2,325.7,-0.7,1.8,2471.385,13.29,0.015,288.4
2023-04-20T19:58:03,42.805,6.029,-0.029,0.01,-0.006,103.0,102.0,100.0,13.4,1505.2,320.9,-0.8,1.8,2471.403,13.29,0.03,289.0
2023-04-20T20:04:03,42.805,6.029,-0.028,0.018,-0.028,102.0,102.0,102.0,13.3,1505.2,324.1,-0.8,1.8,2471.377,13.29,0.033,302.7
2023-04-20T20:07:03,42.805,6.029,-0.03,0.027,-0.045,102.0,102.0,101.0,13.4,1505.2,332.9,-0.8,1.8,2471.407,13.29,0.04,312.0
2023-04-20T20:10:03,42.805,6.029,-0.026,0.038,0.001,103.0,102.0,100.0,13.4,1505.2,330.5,-0.8,1.8,2471.416,13.29,0.046,325.6
2023-04-20T20:13:03,42.805,6.029,-0.035,0.018,-0.018,102.0,102.0,100.0,13.4,1505.2,320.9,-0.8,1.8,2471.412,13.29,0.039,297.2
2023-04-20T20:16:03,42.805,6.029,0.005,0.034,0.022,102.0,101.0,101.0,13.4,1505.2,338.9,-0.8,1.8,2471.392,13.29,0.034,8.4
2023-04-20T20:19:03,42.805,6.029,-0.005,0.017,-0.003,102.0,100.0,101.0,13.4,1505.2,341.9,-0.8,1.8,2471.383,13.29,0.017,343.6